Location: Munkebjergskolens Observatorium
(55.3864°N, 10.3987°E)
Time: 14:16:53
(UTC+01:00)

YUBILEINY - Visible Passes

Search period start: 21 March 2023 00:00
Search period end: 31 March 2023 01:00
Orbit: 1477 x 1509 km, 82.5° (Epoch: 21 March)

Date Brightness Start Highest point End Pass type
(mag) Time Alt. Az. Time Alt. Az. Time Alt. Az.
21 Mar ? 01:26:36 10° NNW 01:34:51 48° W 01:35:02 48° W visible
21 Mar ? 03:25:57 10° NW 03:29:20 13° WNW 03:30:57 12° WNW visible
21 Mar ? 20:43:12 10° N 20:47:45 15° NNE 20:52:16 10° ENE visible
21 Mar ? 22:39:50 10° N 22:47:54 38° ENE 22:49:59 34° E visible
22 Mar ? 00:36:46 10° NNW 00:45:32 74° W 00:45:53 73° WSW visible
22 Mar ? 02:34:43 10° NNW 02:40:51 22° WNW 02:41:48 21° W visible
22 Mar ? 19:53:42 10° N 19:56:17 11° NNE 19:58:51 10° NNE visible
22 Mar ? 21:50:16 10° N 21:57:22 26° NE 22:00:51 21° E visible
22 Mar ? 23:47:03 10° NNW 23:55:53 75° ENE 23:56:45 70° ESE visible
23 Mar ? 01:44:26 10° NNW 01:52:03 35° W 01:52:39 35° W visible
23 Mar ? 21:00:44 10° N 21:06:27 18° NE 21:11:43 11° ENE visible
23 Mar ? 22:57:25 10° N 23:05:56 50° ENE 23:07:37 45° E visible
24 Mar ? 00:54:29 10° NNW 01:02:57 55° W 01:03:32 54° WSW visible
24 Mar ? 02:53:13 10° NW 02:57:41 15° WNW 02:59:26 14° WNW visible
24 Mar ? 20:11:12 10° N 20:15:12 13° NNE 20:19:12 10° NE visible
24 Mar ? 22:07:49 10° N 22:15:39 34° NE 22:18:30 28° E visible
25 Mar ? 00:04:42 10° NNW 00:13:32 83° W 00:14:24 75° SSW visible
25 Mar ? 02:02:26 10° NNW 02:09:06 25° WNW 02:10:19 24° W visible
25 Mar ? 19:21:42 10° N 19:23:40 11° NNE 19:25:38 10° NNE visible
25 Mar ? 21:18:16 10° N 21:25:00 23° NE 21:29:23 16° E visible
25 Mar ? 23:15:01 10° N 23:23:49 67° ENE 23:25:17 59° ESE visible
26 Mar ? 01:12:18 10° NNW 01:20:13 40° W 01:21:12 39° W visible
26 Mar ? 21:28:43 10° N 21:33:59 17° NNE 21:39:14 10° ENE visible
26 Mar ? 23:25:23 10° N 23:33:45 45° ENE 23:36:11 37° E visible
27 Mar ? 01:22:24 10° NNW 01:31:02 62° W 01:32:05 58° WSW visible
27 Mar ? 03:20:44 10° NNW 03:26:00 18° WNW 03:28:00 17° W visible
27 Mar ? 20:39:12 10° N 20:42:38 12° NNE 20:46:04 10° NE visible
27 Mar ? 22:35:48 10° N 22:43:21 30° NE 22:47:05 23° E visible
28 Mar ? 00:32:38 10° NNW 00:41:31 88° E 00:42:59 67° SSE visible
28 Mar ? 02:30:12 10° NNW 02:37:20 29° WNW 02:38:54 27° W visible
28 Mar ? 21:46:15 10° N 21:52:35 21° NE 21:57:59 12° E visible
28 Mar ? 23:42:58 10° N 23:51:41 59° ENE 23:53:54 48° ESE visible
29 Mar ? 01:40:09 10° NNW 01:48:21 46° W 01:49:48 43° WSW visible
29 Mar ? 03:39:49 10° NW 03:42:44 12° WNW 03:45:40 10° W visible
29 Mar ? 20:56:43 10° N 21:01:28 15° NNE 21:06:15 10° ENE visible
29 Mar ? 22:53:22 10° N 23:01:32 40° ENE 23:04:49 30° E visible
30 Mar ? 00:50:19 10° NNW 00:59:04 71° W 01:00:44 59° SSW visible
30 Mar ? 02:48:21 10° NNW 02:54:18 21° WNW 02:56:38 19° W visible
30 Mar ? 22:03:47 10° N 22:11:02 27° NE 22:15:45 18° E visible
31 Mar ? 00:00:35 10° NNW 00:09:28 79° ENE 00:11:39 56° SSE visible
